This demonstration page uses our WeatherBlox Daily Observations layout. Learn more.

Left ArrowRight Arrow

Hourly Observations for February 2, 2020

Temp ( °F °C ) Dew Point ( °F °C ) Humidity (%) Winds ( mph kmh ) Pressure ( in mb ) Visibility ( mi km ) Precip ( " mm )
12:43 am 00:43 Mostly Cloudy 37 2.8 30 -1.1 76 76 W 9 15 29.92 1013 10 16 N/A
12:53 am 00:53 Mostly Cloudy 37 2.8 30 -1.1 76 76 W 10 17 29.89 1012 10 16 N/A
1:53 am 01:53 Cloudy 37 2.8 30 -1.1 76 76 WSW 6 9 29.87 1012 10 16 N/A
2:53 am 02:53 Cloudy 37 2.8 29 -1.7 73 73 SW 5 7 29.87 1011 10 16 N/A
3:53 am 03:53 Cloudy 36 2.2 30 -1.1 79 79 SSW 3 6 29.85 1011 10 16 N/A
4:53 am 04:53 Cloudy 36 2.2 30 -1.1 79 79 VRB 5 7 29.80 1009 10 16 N/A
5:53 am 05:53 Clear 35 1.7 30 -1.1 82 82 VRB 3 6 29.77 1008 10 16 N/A
6:53 am 06:53 Mostly Clear 37 2.8 30 -1.1 76 76 SSW 7 11 29.72 1007 10 16 N/A
7:53 am 07:53 Sunny 38 3.3 30 -1.1 73 73 SSW 12 19 29.69 1006 10 16 N/A
8:53 am 08:53 Sunny 39 3.9 30 -1.1 70 70 SW 13 20 29.69 1005 10 16 N/A
9:53 am 09:53 Sunny 44 6.7 30 -1.1 58 58 SW 13 20 29.65 1004 10 16 N/A
10:53 am 10:53 Sunny 49 9.4 32 undefined 52 52 WSW 13 20 29.67 1005 10 16 N/A
11:53 am 11:53 Sunny 53 11.7 34 1.1 48 48 WSW 12 19 29.66 1005 10 16 N/A
12:53 pm 12:53 Sunny 56 13.3 34 1.1 44 44 WSW 15 24 29.64 1004 10 16 N/A
1:53 pm 13:53 Sunny 60 15.6 34 1.1 38 38 WSW 16 26 29.62 1003 10 16 N/A
2:53 pm 14:53 Sunny 63 17.2 34 1.1 34 34 WSW 13 20 29.61 1003 10 16 N/A
3:53 pm 15:53 Sunny 63 17.2 34 1.1 34 34 WSW 17 28 29.63 1003 10 16 N/A
4:53 pm 16:53 Sunny 63 17.2 34 1.1 34 34 WSW 12 19 29.65 1004 10 16 N/A
5:53 pm 17:53 Sunny 60 15.6 34 1.1 38 38 W 8 13 29.69 1005 10 16 N/A
6:53 pm 18:53 Clear 58 14.4 35 1.7 42 42 WSW 10 17 29.73 1007 10 16 N/A
7:53 pm 19:53 Clear 56 13.3 35 1.7 46 46 WSW 8 13 29.76 1008 10 16 N/A
8:53 pm 20:53 Clear 55 12.8 36 2.2 49 49 WSW 9 15 29.78 1008 10 16 N/A
9:53 pm 21:53 Clear 52 11.1 36 2.2 55 55 W 5 7 29.80 1009 10 16 N/A
10:53 pm 22:53 Clear 46 7.8 35 1.7 66 66 N N/A 29.83 1010 10 16 N/A
11:53 pm 23:53 Clear 39 3.9 34 1.1 82 82 N N/A 29.83 1010 10 16 N/A

Powered by AerisWeather